Winona, MN

5:49 AM CST on November 21, 2019 (GMT -0600)
Winona Municipal-Conrad

Weather History for KONA - October, 2019

Change the Weather History Date:

Tuesday, October 22, 2019

  Actual Average Record
Temperature  
Mean Temperature 44 °F -  
Max Temperature 48 °F 61 °F 76 °F (1967)
Min Temperature 41 °F 42 °F 24 °F (2013)
Degree Days  
Heating Degree Days 20    
Moisture  
Dew Point 37 °F    
Average Humidity 76    
Maximum Humidity 93    
Minimum Humidity 57    
Precipitation  
Precipitation 0.04 in - - ()
Sea Level Pressure  
Sea Level Pressure 29.45 in    
Wind  
Wind Speed 9 mph (WNW)    
Max Wind Speed 20 mph    
Max Gust Speed 32 mph    
Visibility 9 miles    
Events Rain    
Averages and records for this station are not official NWS values.
T = Trace of Precipitation, MM = Missing Value Source: NWS Daily Summary

Daily Weather History Graph

Daily Weather History Graph

Search for Another Location

Airport or City:

Astronomy

Oct. 22, 2019 Rise Set
Actual Time 7:30 AM CDT 6:11 PM CDT
Civil Twilight 7:00 AM CDT 6:41 PM CDT
Nautical Twilight 6:26 AM CDT 7:14 PM CDT
Astronomical Twilight 5:53 AM CDT 7:48 PM CDT
Moon 12:22 AM CDT (10/22) 3:37 PM CDT (10/22)
Length of Visible Light 11h 40m
Length of Day
10h 41m
Last Quarter, 37% of the Moon is Illuminated
Oct 22
Last Quarter
Oct 27
New
Nov 4
First Quarter
Nov 12
Full
Nov 19
Last Quarter

Hourly Weather History & Observations

Time (CDT) Temp. Windchill Dew Point Humidity Pressure Visibility Wind Dir Wind Speed Gust Speed Precip Events Conditions
12:15 AM 42.8 °F 40.1 °F 37.4 °F 81% 29.19 in 10.0 mi South 4.6 mph - N/A Rain Light Rain
12:36 AM 42.8 °F 40.1 °F 37.4 °F 81% 29.18 in 10.0 mi SSE 4.6 mph - 0.01 in   Drizzle
12:55 AM 42.8 °F - 39.2 °F 87% 29.18 in 10.0 mi Calm Calm - 0.02 in Rain Light Rain
1:16 AM 42.8 °F - 39.2 °F 87% 29.18 in 10.0 mi Calm Calm - N/A   Light Drizzle
1:35 AM 42.8 °F 41.1 °F 39.2 °F 87% 29.17 in 10.0 mi SSW 3.5 mph - 0.01 in   Light Drizzle
1:55 AM 42.8 °F - 39.2 °F 87% 29.18 in 7.0 mi Calm Calm - 0.01 in   Drizzle
2:16 AM 42.8 °F - 41.0 °F 93% 29.18 in 5.0 mi Calm Calm - N/A   Light Drizzle
2:35 AM 42.8 °F - 41.0 °F 93% 29.19 in 2.5 mi Calm Calm - 0.01 in   Overcast
2:55 AM 42.8 °F 40.1 °F 41.0 °F 93% 29.19 in 10.0 mi NNW 4.6 mph - 0.01 in   Overcast
3:15 AM 42.8 °F 41.1 °F 41.0 °F 93% 29.20 in 10.0 mi WNW 3.5 mph - N/A   Overcast
3:36 AM 42.8 °F 38.6 °F 41.0 °F 93% 29.21 in 10.0 mi WNW 6.9 mph - N/A   Overcast
3:55 AM 42.8 °F 38.6 °F 41.0 °F 93% 29.22 in 10.0 mi WNW 6.9 mph - N/A   Overcast
4:16 AM 42.8 °F 38.6 °F 41.0 °F 93% 29.23 in 10.0 mi West 6.9 mph - N/A   Overcast
4:36 AM 42.8 °F 37.5 °F 41.0 °F 93% 29.24 in 7.0 mi West 9.2 mph - N/A   Overcast
4:56 AM 42.8 °F 38.0 °F 41.0 °F 93% 29.24 in 3.0 mi West 8.1 mph - N/A   Overcast
5:16 AM 42.8 °F 35.1 °F 41.0 °F 93% 29.26 in 5.0 mi WNW 16.1 mph 24.2 mph N/A   Overcast
5:35 AM 42.8 °F 35.4 °F 41.0 °F 93% 29.28 in 10.0 mi WNW 15.0 mph 26.5 mph N/A   Overcast
5:55 AM 42.8 °F 36.2 °F 39.2 °F 87% 29.29 in 10.0 mi WNW 12.7 mph 21.9 mph N/A   Overcast
6:16 AM 41.0 °F 33.1 °F 37.4 °F 87% 29.31 in 5.0 mi WNW 15.0 mph 28.8 mph N/A   Light Drizzle
6:36 AM 42.8 °F 35.8 °F 39.2 °F 87% 29.32 in 10.0 mi WNW 13.8 mph 19.6 mph N/A   Overcast
6:56 AM 42.8 °F 36.6 °F 39.2 °F 87% 29.33 in 7.0 mi WNW 11.5 mph 21.9 mph N/A   Overcast
7:16 AM 42.8 °F 35.4 °F 39.2 °F 87% 29.33 in 10.0 mi WNW 15.0 mph 21.9 mph N/A Rain Light Rain
7:36 AM 42.8 °F 35.8 °F 39.2 °F 87% 29.34 in 10.0 mi WNW 13.8 mph 24.2 mph N/A   Light Drizzle
7:55 AM 42.8 °F 35.4 °F 39.2 °F 87% 29.35 in 10.0 mi WNW 15.0 mph 21.9 mph N/A   Light Drizzle
8:16 AM 42.8 °F 34.3 °F 37.4 °F 81% 29.36 in 7.0 mi WNW 19.6 mph 27.6 mph N/A   Light Drizzle
8:35 AM 42.8 °F 34.5 °F 37.4 °F 81% 29.38 in 7.0 mi WNW 18.4 mph 26.5 mph N/A   Light Drizzle
8:55 AM 42.8 °F 34.5 °F 37.4 °F 81% 29.39 in 7.0 mi WNW 18.4 mph 26.5 mph N/A   Light Drizzle
9:16 AM 42.8 °F 34.8 °F 37.4 °F 81% 29.41 in 10.0 mi WNW 17.3 mph 32.2 mph N/A   Overcast
9:35 AM 42.8 °F 35.1 °F 37.4 °F 81% 29.41 in 10.0 mi WNW 16.1 mph 25.3 mph N/A   Overcast
9:55 AM 42.8 °F 35.4 °F 37.4 °F 81% 29.42 in 10.0 mi West 15.0 mph 23.0 mph N/A   Overcast
10:16 AM 42.8 °F 34.5 °F 35.6 °F 76% 29.43 in 10.0 mi WNW 18.4 mph 32.2 mph N/A   Overcast
10:36 AM 42.8 °F 35.8 °F 35.6 °F 76% 29.44 in 10.0 mi WNW 13.8 mph 23.0 mph N/A   Overcast
10:55 AM 42.8 °F 35.8 °F 37.4 °F 81% 29.45 in 10.0 mi West 13.8 mph 24.2 mph N/A   Light Drizzle
11:15 AM 42.8 °F 35.8 °F 37.4 °F 81% 29.46 in 10.0 mi WNW 13.8 mph 25.3 mph N/A Rain Light Rain
11:36 AM 42.8 °F 35.1 °F 37.4 °F 81% 29.47 in 7.0 mi West 16.1 mph 32.2 mph N/A Rain Light Rain
11:55 AM 42.8 °F 36.2 °F 37.4 °F 81% 29.48 in 10.0 mi WNW 12.7 mph 25.3 mph N/A Rain Light Rain
12:16 PM 42.8 °F 36.2 °F 37.4 °F 81% 29.49 in 10.0 mi West 12.7 mph 25.3 mph N/A   Light Drizzle
12:36 PM 42.8 °F 36.6 °F 37.4 °F 81% 29.49 in 10.0 mi West 11.5 mph 29.9 mph N/A   Overcast
12:56 PM 42.8 °F 36.6 °F 37.4 °F 81% 29.50 in 10.0 mi West 11.5 mph 23.0 mph N/A   Overcast
1:16 PM 42.8 °F 37.0 °F 35.6 °F 76% 29.51 in 10.0 mi West 10.4 mph 27.6 mph N/A   Overcast
1:36 PM 42.8 °F 35.8 °F 35.6 °F 76% 29.51 in 10.0 mi WNW 13.8 mph 31.1 mph N/A   Overcast
1:56 PM 42.8 °F 35.4 °F 35.6 °F 76% 29.52 in 10.0 mi WNW 15.0 mph 32.2 mph N/A   Overcast
2:16 PM 42.8 °F 35.8 °F 35.6 °F 76% 29.53 in 10.0 mi WNW 13.8 mph 25.3 mph N/A   Overcast
2:35 PM 42.8 °F 34.5 °F 35.6 °F 76% 29.54 in 10.0 mi WNW 18.4 mph 27.6 mph N/A   Overcast
2:56 PM 42.8 °F 35.8 °F 35.6 °F 76% 29.55 in 10.0 mi WNW 13.8 mph 19.6 mph N/A   Overcast
3:16 PM 42.8 °F 36.2 °F 35.6 °F 76% 29.55 in 10.0 mi WNW 12.7 mph 25.3 mph N/A   Overcast
3:36 PM 44.6 °F 38.8 °F 35.6 °F 71% 29.56 in 10.0 mi West 11.5 mph 19.6 mph N/A   Overcast
3:56 PM 44.6 °F 39.7 °F 35.6 °F 71% 29.57 in 10.0 mi WNW 9.2 mph 21.9 mph N/A   Overcast
4:16 PM 46.4 °F 41.1 °F 35.6 °F 66% 29.57 in 10.0 mi West 11.5 mph 23.0 mph N/A   Overcast
4:36 PM 46.4 °F 39.2 °F 35.6 °F 66% 29.58 in 10.0 mi West 18.4 mph 26.5 mph N/A   Overcast
4:56 PM 46.4 °F 41.1 °F 35.6 °F 66% 29.59 in 10.0 mi West 11.5 mph 26.5 mph N/A   Overcast
5:16 PM 46.4 °F 40.4 °F 35.6 °F 66% 29.61 in 10.0 mi WNW 13.8 mph 25.3 mph N/A   Overcast
5:36 PM 46.4 °F 41.1 °F 35.6 °F 66% 29.61 in 10.0 mi West 11.5 mph 18.4 mph N/A   Overcast
5:55 PM 46.4 °F 40.7 °F 35.6 °F 66% 29.62 in 10.0 mi WNW 12.7 mph 23.0 mph N/A   Overcast
6:16 PM 48.2 °F - 37.4 °F 66% 29.63 in 10.0 mi WNW 8.1 mph 21.9 mph N/A   Overcast
6:55 PM 48.2 °F - 35.6 °F 62% 29.64 in 10.0 mi WNW 12.7 mph 26.5 mph N/A   Overcast
7:16 PM 48.2 °F - 35.6 °F 62% 29.65 in 10.0 mi WNW 13.8 mph 20.7 mph N/A   Overcast
7:35 PM 48.2 °F - 35.6 °F 62% 29.66 in 10.0 mi WNW 12.7 mph 24.2 mph N/A   Overcast
7:56 PM 48.2 °F - 35.6 °F 62% 29.66 in 10.0 mi WNW 11.5 mph 20.7 mph N/A   Overcast
8:16 PM 48.2 °F - 35.6 °F 62% 29.67 in 10.0 mi WNW 15.0 mph 20.7 mph N/A   Overcast
8:36 PM 48.2 °F - 33.8 °F 58% 29.67 in 10.0 mi West 11.5 mph 20.7 mph N/A   Overcast
8:56 PM 48.2 °F - 33.8 °F 58% 29.67 in 10.0 mi West 13.8 mph 21.9 mph N/A   Overcast
9:16 PM 48.2 °F - 33.8 °F 58% 29.67 in 10.0 mi West 11.5 mph 23.0 mph N/A   Overcast
9:35 PM 48.2 °F - 33.8 °F 58% 29.68 in 10.0 mi WNW 9.2 mph - N/A   Overcast
9:56 PM 48.2 °F - 33.8 °F 58% 29.69 in 10.0 mi West 13.8 mph 23.0 mph N/A   Overcast
10:16 PM 46.4 °F 39.8 °F 32.0 °F 57% 29.69 in 10.0 mi West 16.1 mph 26.5 mph N/A   Overcast
10:35 PM 46.4 °F 40.4 °F 32.0 °F 57% 29.69 in 10.0 mi West 13.8 mph 25.3 mph N/A   Overcast
10:55 PM 46.4 °F 41.1 °F 32.0 °F 57% 29.70 in 10.0 mi WNW 11.5 mph 24.2 mph N/A   Overcast
11:16 PM 46.4 °F 41.5 °F 32.0 °F 57% 29.70 in 10.0 mi West 10.4 mph 21.9 mph N/A   Overcast
11:35 PM 46.4 °F 41.5 °F 32.0 °F 57% 29.70 in 10.0 mi West 10.4 mph 23.0 mph N/A   Overcast
11:55 PM 46.4 °F 41.9 °F 32.0 °F 57% 29.70 in 10.0 mi WNW 9.2 mph 20.7 mph N/A   Overcast